Moses Lake, WA
on Tuesday, November 20, 2012

Tuesday
Previous Day Next Day
Daily Summary
 ActualAverageRecord
Temperature
Mean Temperature °F / °C 36°F / 2°C  
Max Temperature 54°F / 12°C 44°F / 7°C 55°F / 12°C (1986)
Min Temperature 41°F / 5°C 28°F / -2°C -3°F / -19°C (1985)
Degree Days
Heating Degree Days 17 29  
Month to date heating degree days 448 510  
Since 1 July heating degree days 973 1147  
Cooling Degree Days 0 0  
Month to date cooling degree days 0 0  
Year to date cooling degree days 719 615  
Moisture
Dew Point 42°F / 6°C   
Average Humidity 77    
Maximum Humidity 93    
Minimum Humidity 61    
Precipitation
Precipitation 0.01 in / 0.25 cm 0.04 in / 1.02 cm 0.35 in / 0.89 cm (2003)
Month to date precipitation 0.87 0.77  
Year to date precipitation 7.47 7.24  
Wind
Wind Speed 12 mph / 19 km/h   
Max Wind Speed 24 mph / 39 km/h   
Max Gust Speed 31 mph / 50 km/h   
Visibility 10 miles / 17 kilometers   
Events     

Key: T is trace of precipitation, MM is missing value
Source: NWS Daily Summary
Time(PST)TemperatureDew PointHumidity Pressure Visibility Wind DirectionWind SpeedGust SpeedPrecipitationEvents Conditions
12:52 AM 51.1°F / 10.6°C 41.0°F / 5.0°C 68% 29.73 in / 1006.8 hPa 10.0 miles / 16.1 kilometers SSW 9.2 mph / 14.8 km/h - N/A   Overcast
1:52 AM 48.9°F / 9.4°C 42.1°F / 5.6°C 77% 29.75 in / 1007.4 hPa 10.0 miles / 16.1 kilometers South 13.8 mph / 22.2 km/h - N/A   Scattered Clouds
2:52 AM 48.9°F / 9.4°C 42.1°F / 5.6°C 77% 29.75 in / 1007.2 hPa 10.0 miles / 16.1 kilometers South 11.5 mph / 18.5 km/h - N/A   Mostly Cloudy
3:52 AM 48.0°F / 8.9°C 42.1°F / 5.6°C 80% 29.76 in / 1007.7 hPa 10.0 miles / 16.1 kilometers South 9.2 mph / 14.8 km/h - N/A   Overcast
4:52 AM 48.0°F / 8.9°C 43.0°F / 6.1°C 83% 29.75 in / 1007.3 hPa 10.0 miles / 16.1 kilometers SSE 12.7 mph / 20.4 km/h - N/A   Mostly Cloudy
5:52 AM 46.9°F / 8.3°C 44.1°F / 6.7°C 90% 29.72 in / 1006.2 hPa 10.0 miles / 16.1 kilometers SSE 9.2 mph / 14.8 km/h - N/A   Clear
5:55 AM 50.0°F / 10.0°C 44.6°F / 7.0°C 82% 30.14 in / 1020.5 hPa 20.0 miles / 32.2 kilometers South 5.8 mph / 9.3 km/h - N/A   Clear
6:52 AM 48.0°F / 8.9°C 44.1°F / 6.7°C 86% 29.72 in / 1006.4 hPa 10.0 miles / 16.1 kilometers SSE 11.5 mph / 18.5 km/h - N/A   Overcast
7:52 AM 48.2°F / 9.0°C 44.6°F / 7.0°C 87% 29.70 in / 1005.6 hPa 10.0 miles / 16.1 kilometers SSE 12.7 mph / 20.4 km/h - N/A   Overcast
8:52 AM 48.9°F / 9.4°C 45.0°F / 7.2°C 86% 29.70 in / 1005.6 hPa 10.0 miles / 16.1 kilometers SSE 9.2 mph / 14.8 km/h - N/A   Overcast
9:52 AM 48.9°F / 9.4°C 45.0°F / 7.2°C 86% 29.69 in / 1005.2 hPa 10.0 miles / 16.1 kilometers SSE 17.3 mph / 27.8 km/h - N/A   Partly Cloudy
10:52 AM 50.0°F / 10.0°C 45.0°F / 7.2°C 83% 29.68 in / 1005.1 hPa 10.0 miles / 16.1 kilometers SSE 17.3 mph / 27.8 km/h - N/A   Clear
11:29 AM 50.0°F / 10.0°C 44.6°F / 7.0°C 82% 29.66 in / 1004.3 hPa 10.0 miles / 16.1 kilometers SSE 16.1 mph / 25.9 km/h - N/A   Mostly Cloudy
11:52 AM 50.0°F / 10.0°C 45.0°F / 7.2°C 83% 29.66 in / 1004.3 hPa 10.0 miles / 16.1 kilometers South 17.3 mph / 27.8 km/h 24.2 mph / 38.9 km/h N/A   Overcast
12:52 PM 51.1°F / 10.6°C 46.0°F / 7.8°C 83% 29.65 in / 1003.8 hPa 10.0 miles / 16.1 kilometers South 16.1 mph / 25.9 km/h 27.6 mph / 44.4 km/h 0.01 in / 0.3 cm   Mostly Cloudy
1:52 PM 53.1°F / 11.7°C 46.0°F / 7.8°C 77% 29.65 in / 1004.1 hPa 10.0 miles / 16.1 kilometers South 20.7 mph / 33.3 km/h 26.5 mph / 42.6 km/h N/A   Mostly Cloudy
1:59 PM 53.6°F / 12.0°C 46.4°F / 8.0°C 77% 29.64 in / 1003.6 hPa 10.0 miles / 16.1 kilometers South 19.6 mph / 31.5 km/h 26.5 mph / 42.6 km/h N/A   Scattered Clouds
2:52 PM 53.1°F / 11.7°C 46.0°F / 7.8°C 77% 29.65 in / 1003.8 hPa 10.0 miles / 16.1 kilometers South 17.3 mph / 27.8 km/h 26.5 mph / 42.6 km/h N/A   Clear
3:52 PM 53.1°F / 11.7°C 45.0°F / 7.2°C 74% 29.65 in / 1004.1 hPa 10.0 miles / 16.1 kilometers South 18.4 mph / 29.6 km/h 25.3 mph / 40.7 km/h N/A   Clear
4:52 PM 52.0°F / 11.1°C 41.0°F / 5.0°C 66% 29.67 in / 1004.6 hPa 10.0 miles / 16.1 kilometers South 15.0 mph / 24.1 km/h 21.9 mph / 35.2 km/h N/A   Clear
5:52 PM 50.0°F / 10.0°C 39.9°F / 4.4°C 68% 29.69 in / 1005.3 hPa 10.0 miles / 16.1 kilometers South 11.5 mph / 18.5 km/h - N/A   Clear
6:52 PM 48.0°F / 8.9°C 36.0°F / 2.2°C 63% 29.72 in / 1006.2 hPa 10.0 miles / 16.1 kilometers SSW 9.2 mph / 14.8 km/h - N/A   Clear
7:52 PM 46.0°F / 7.8°C 36.0°F / 2.2°C 68% 29.69 in / 1005.4 hPa 10.0 miles / 16.1 kilometers South 8.1 mph / 13.0 km/h - N/A   Clear
8:52 PM 42.1°F / 5.6°C 35.1°F / 1.7°C 76% 29.85 in / 1010.8 hPa 10.0 miles / 16.1 kilometers SE 4.6 mph / 7.4 km/h - N/A   Partly Cloudy
9:52 PM 45.0°F / 7.2°C 36.0°F / 2.2°C 71% 29.85 in / 1010.7 hPa 10.0 miles / 16.1 kilometers SSW 3.5 mph / 5.6 km/h - N/A   Overcast
10:52 PM 45.0°F / 7.2°C 35.1°F / 1.7°C 68% 29.70 in / 1005.6 hPa 10.0 miles / 16.1 kilometers South 8.1 mph / 13.0 km/h - N/A   Mostly Cloudy
11:52 PM 46.0°F / 7.8°C 34.0°F / 1.1°C 63% 29.70 in / 1005.8 hPa 10.0 miles / 16.1 kilometers SSW 8.1 mph / 13.0 km/h - N/A   Overcast
Moon Phase
Nov. 20 Nov. 28 Dec. 06 Dec. 13 Dec. 20
Sunrise:07:09 AM (PST) Moon Rise:12:31 PM (PST)11/20
Sunset:04:16 PM (PST) Moon Set:No Moon Set/

Copyright © 2014 The Weather Underground, Inc.